Oakland, CA

9:01 AM PST on January 22, 2018 (GMT -0800)
Metro Oakland International

Weather History for KOAK - June, 2013

Change the Weather History Date:

Wednesday, June 12, 2013

  Actual Average Record
Temperature  
Mean Temperature 62 °F 62 °F  
Max Temperature 71 °F 70 °F 92 °F (2010)
Min Temperature 52 °F 54 °F 46 °F (1952)
Degree Days  
Heating Degree Days 3 4  
Month to date heating degree days 25 51  
Since 1 June heating degree days 25 51  
Since 1 July heating degree days 2396 2821  
Cooling Degree Days 0 1  
Month to date cooling degree days 4 1  
Year to date cooling degree days 45 17  
Since 1 June cooling degree days 4 1  
Growing Degree Days 10 (Base 50)    
Moisture  
Dew Point 53 °F    
Average Humidity 75    
Maximum Humidity 100    
Minimum Humidity 49    
Precipitation  
Precipitation 0.00 in 0.01 in 0.04 in (1954)
Month to date precipitation T 0.11  
Year to date precipitation 2.65 13.15  
Since 1 July precipitation 13.64  
Sea Level Pressure  
Sea Level Pressure 29.98 in    
Wind  
Wind Speed 8 mph (West)    
Max Wind Speed 26 mph    
Max Gust Speed 30 mph    
Visibility 10 miles    
Events      
T = Trace of Precipitation, MM = Missing Value Source: NWS Daily Summary

Daily Weather History Graph

Daily Weather History Graph

Search for Another Location

Airport or City:

Trip Planner

Search our weather history database for the weather conditions in past years. The results will help you decide how hot, cold, wet, or windy it might be!

Date:

Astronomy

Jun. 12, 2013 Rise Set
Actual Time 5:46 AM PDT 8:31 PM PDT
Civil Twilight 5:15 AM PDT 9:02 PM PDT
Nautical Twilight 4:36 AM PDT 9:41 PM PDT
Astronomical Twilight 3:52 AM PDT 10:25 PM PDT
Moon 9:27 AM PDT (6/12) 11:13 PM PDT (6/12)
Length of Visible Light 15h 47m
Length of Day
14h 44m
Waxing Crescent, 15% of the Moon is Illuminated
Jun 12
Waxing Crescent
Jun 16
First Quarter
Jun 23
Full
Jun 29
Last Quarter
Jul 8
New

Hourly Weather History & Observations

Time (PDT) Temp. Dew Point Humidity Pressure Visibility Wind Dir Wind Speed Gust Speed Precip Events Conditions
12:53 AM 55.0 °F 54.0 °F 96% 29.94 in 10.0 mi Calm Calm - N/A   Clear
1:53 AM 55.9 °F 55.0 °F 97% 29.94 in 10.0 mi Calm Calm - N/A   Partly Cloudy
2:53 AM 55.0 °F 55.0 °F 100% 29.94 in 10.0 mi Calm Calm - N/A   Clear
3:53 AM 53.1 °F 53.1 °F 100% 29.94 in 10.0 mi Calm Calm - N/A   Clear
4:53 AM 54.0 °F 54.0 °F 100% 29.94 in 10.0 mi North 3.5 mph - N/A   Partly Cloudy
5:08 AM 51.8 °F 51.8 °F 100% 29.95 in 10.0 mi North 3.5 mph - N/A   Mostly Cloudy
5:53 AM 52.0 °F 52.0 °F 100% 29.96 in 9.0 mi Calm Calm - N/A   Partly Cloudy
6:53 AM 55.9 °F 55.9 °F 100% 29.97 in 10.0 mi NE 4.6 mph - N/A   Scattered Clouds
7:53 AM 57.9 °F 55.0 °F 90% 29.98 in 10.0 mi Calm Calm - N/A   Partly Cloudy
8:53 AM 61.0 °F 54.0 °F 78% 29.99 in 10.0 mi Calm Calm - N/A   Partly Cloudy
9:53 AM 61.0 °F 55.0 °F 81% 30.00 in 10.0 mi SW 5.8 mph - N/A   Partly Cloudy
10:53 AM 64.0 °F 51.1 °F 63% 30.01 in 10.0 mi WSW 8.1 mph - N/A   Partly Cloudy
11:53 AM 66.0 °F 51.1 °F 59% 30.00 in 10.0 mi West 6.9 mph - N/A   Clear
12:53 PM 68.0 °F 48.9 °F 50% 30.00 in 10.0 mi West 12.7 mph - N/A   Clear
1:53 PM 70.0 °F 52.0 °F 53% 30.00 in 10.0 mi West 15.0 mph - N/A   Partly Cloudy
2:53 PM 69.1 °F 52.0 °F 54% 29.99 in 10.0 mi WSW 18.4 mph - N/A   Clear
3:53 PM 70.0 °F 52.0 °F 53% 29.98 in 10.0 mi West 16.1 mph - N/A   Partly Cloudy
4:53 PM 68.0 °F 51.1 °F 55% 29.99 in 10.0 mi WSW 23.0 mph - N/A   Partly Cloudy
5:53 PM 66.0 °F 52.0 °F 60% 29.99 in 10.0 mi West 12.7 mph - N/A   Partly Cloudy
6:53 PM 64.9 °F 52.0 °F 63% 29.98 in 10.0 mi West 18.4 mph - N/A   Partly Cloudy
7:53 PM 62.1 °F 54.0 °F 75% 29.99 in 10.0 mi West 17.3 mph - N/A   Partly Cloudy
8:53 PM 61.0 °F 54.0 °F 78% 30.00 in 10.0 mi WNW 11.5 mph - N/A   Partly Cloudy
9:53 PM 59.0 °F 55.0 °F 87% 30.01 in 10.0 mi West 8.1 mph - N/A   Clear
10:53 PM 57.9 °F 54.0 °F 87% 30.02 in 10.0 mi Calm Calm - N/A   Clear
11:53 PM 57.9 °F 54.0 °F 87% 30.03 in 10.0 mi West 8.1 mph - N/A   Clear